Orbital Elements at Epoch 2459200.5 (2020-Dec-17.0) TDB
Reference: JPL 25 (heliocentric ecliptic J2000)
Element | Value | Uncertainty (1-sigma) | Units |
e | .1913791649728878 | 2.9782e-08 | |
a | 2.604505298541412 | 1.1045e-08 | au |
q | 2.106057249339095 | 7.823e-08 | au |
i | 2.540226924606653 | 5.0704e-06 | deg |
node | 306.1397115741655 | 0.00010654 | deg |
peri | 124.0170076750763 | 0.00010828 | deg |
M | 130.814924657792 | 1.8464e-05 | deg |
tp | 2458642.619618201879 (2019-Jun-08.11961820) | 7.7329e-05 | TDB |
period | 1535.275412745963 4.20 | 9.766e-06 2.674e-08 | d yr |
n | .2344856154219986 | 1.4916e-09 | deg/d |
Q | 3.102953347743729 | 1.3159e-08 | au |
|
| | Orbit Determination Parameters
Additional Information
|